Tracking 29967 objects as of 5-Dec-2024
HD Live streaming from Space Station
objects crossing your sky now

CZ-3C DEB

Track CZ-3C DEB now!


NORAD ID: 40853
Int'l Code: 2012-008T
Perigee: 844.8 km
Apogee: 35,197.3 km
Inclination: 20.7 °
Period: 631.9 minutes
Semi major axis: 24392 km
RCS: Unknown
Launch date: February 24, 2012
Source: People's Republic of China (PRC)
Launch site: Xichang Space Center, China (XSC)

Note: This is SATELLITE DEBRIS
Your satellite tracking list
Your tracking list is empty




NASA's NSSDC Master Catalog

Two Line Element Set (TLE):
1 40853U 12008T   24337.26596420 -.00000016  00000-0  30009-2 0  9996
2 40853  20.6876 237.4263 7041729 164.5527 239.9157  2.27892794 85030
Source of the keplerian elements: AFSPC